Location: Sternwarte ZA, Rosenfeld-Brittheim
(48.2889°N, 8.6789°E)
Time: 17:11:16
(UTC+01:00)

ISS - Pass Details

Date: 22 January 2020
Orbit: 415 x 421 km, 51.6° (Epoch: 18 January)

Event Time Altitude Azimuth Distance (km) Brightness Sun altitude
Rises 19:58:11 0° 248° (WSW) 2,359 1.1 -28.0°
Reaches altitude 10° 20:00:16 10° 249° (WSW) 1,496 -0.1 -28.3°
Enters shadow 20:01:13 18° 250° (WSW) 1,116 -0.9 -28.5°
